Regional Weather Roundup
Issued by NWS Wakefield, VA

Home | Current Version | Previous Version | Graphics & Text | Print | Product List | Glossary On
Versions: 1 2 3 4 5 6 7 8 9 10 11 12 13 14 15 16 17 18 19 20 21 22 23 24 25 26 27
000
ASUS41 KAKQ 281415
RWRAKQ

REGIONAL WEATHER ROUNDUP
NATIONAL WEATHER SERVICE WAKEFIELD VA
1000 AM EDT FRI JUL 28 2017

Note: "fair" indicates few or no clouds below 12,000 feet with no
significant weather and/or obstructions to visibility. * = Denotes
station may not report precipitation (e.g., rain,snow,etc.),
thunder or fog.

VAZ042-051-052>054-056-281500-
NORTHERN VIRGINIA

CITY           SKY/WX    TMP DP  RH WIND       PRES   REMARKS
WASH NATIONAL  CLOUDY    80  75  84 VRB3      29.82F
DULLES         CLOUDY    76  71  85 NW3       29.84S
FORT BELVOIR   CLOUDY    80  71  74 CALM      29.82S
QUANTICO       CLOUDY    80  73  79 CALM      29.83S
FREDERICKSBRG* PTSUNNY   78  72  81 CALM      29.83S
STAFFORD*      PTSUNNY   77  73  88 CALM      29.87F
WARRENTON      CLOUDY    79  66  64 CALM      29.84S
CULPEPER*      CLOUDY    79  70  75 CALM      29.85F
MANASSAS*      CLOUDY    78  71  79 N6        29.84S
LEESBURG*      CLOUDY    77  73  88 CALM      29.85F
WINCHESTER     DRIZZLE   70  68  94 SW6       29.86S
FRONT ROYAL*   CLOUDY    73  70  88 CALM      29.85F
LURAY*         RAIN      72  70  94 CALM      29.87S
$$

VAZ048-049-060>072-079>083-281500-
CENTRAL AND SOUTH CENTRAL VIRGINIA

CITY           SKY/WX    TMP DP  RH WIND       PRES   REMARKS
RICHMOND       CLOUDY    79  72  79 S3        29.83F
CHESTERFIELD*  CLOUDY    80  72  76 CALM      29.84F
PETERSBURG*    LGT RAIN  77  72  84 CALM      29.84F
HANOVER        CLOUDY    81  70  69 CALM      29.84F
TAPPAHANNOCK*  CLOUDY    79  66  64 CALM      29.84S
QUINTON*       PTSUNNY   80  74  81 CALM      29.83F
CHARLOTTSVILLE LGT RAIN  77  72  84 N3        29.85S
GORDONSVILLE*  CLOUDY    78  73  85 CALM      29.84S
ORANGE*        CLOUDY    77  70  78 E3        29.85S
LOUISA*        CLOUDY    79  70  73 CALM      29.84S
BUMPASS*       FAIR      79  73  81 CALM      29.84F
FARMVILLE*     CLOUDY    78  70  78 CALM      29.83F
CREWE*         FAIR      78  73  85 CALM      29.84F
FORT PICKETT*  FAIR     N/A N/A N/A SW5       29.85F
CHASE CITY*    PTSUNNY   78  78  99 SW3       29.86F
CLARKSVILLE*   PTSUNNY   77  77 100 SW3       29.86S
SOUTH HILL*    CLOUDY    78  75  90 SW3       29.91F
LAWRENCEVILLE* CLOUDY    78  75  91 SW5       29.86S
EMPORIA*       PTSUNNY   81  73  78 SW6       29.86S
$$

VAZ088>098-281500-
SOUTHEAST VIRGINIA

CITY           SKY/WX    TMP DP  RH WIND       PRES   REMARKS
NORFOLK        CLOUDY    78  74  87 S10       29.85F
VIRGINIA BEACH CLOUDY    75  71  87 S7        29.85F
NORFOLK NAVAL  CLOUDY    79  73  82 S6        29.86F
WEST POINT*    CLOUDY    80  71  74 CALM      29.84F
SALUDA*        CLOUDY    78  74  88 CALM      29.84S
NEWPORT NEWS   CLOUDY    82  74  76 SW10      29.84F
LANGLEY AFB    PTSUNNY   80  75  84 S10       29.84F
FORT EUSTIS    CLOUDY    84  75  74 S7        29.82F
WILLIAMSBURG*  SUNNY     82  73  74 CALM      29.85F
HR EXEC AP*    CLOUDY    75  72  88 S7        29.84F
FRANKLIN*      PTSUNNY   79  73  83 SW3       29.85F
US460-WAKEFLD  PTSUNNY   80  76  87 SW6       29.84F
$$

VAZ020-022-025-037-045-281500-
WEST CENTRAL AND SOUTHWEST VIRGINIA

CITY           SKY/WX    TMP DP  RH WIND       PRES   REMARKS
STAUNTON*      CLOUDY    72  69  92 NE3       29.89F
WAYNESBORO*    CLOUDY    74  69  84 CALM      29.88S
HOT SPRINGS VA FOG       64  63  94 W12       30.00R VSB<1/4
LYNCHBURG      CLOUDY    76  72  87 S7        29.87F
DANVILLE       PTSUNNY   78  74  87 VRB5      29.86F
SOUTH BOSTON*  FAIR      78  76  92 SW5       29.86S
MARTINSVILLE   CLOUDY    76  71  84 CALM      29.90S
ROANOKE        MOSUNNY   79  71  76 W8        29.89F
BLACKSBURG     CLOUDY    70  68  93 CALM      29.96F FOG
DUBLIN*        LGT RAIN  73  65  78 CALM      29.95F
MARION*        RAIN      72  67  86 W6        29.98F
HILLSVILLE*    CLOUDY    70  65  86 CALM      29.96F
RICHLANDS*     CLOUDY    70  66  87 SW7       29.97S FOG
WISE*          CLOUDY    73  73 100 W5        29.97S
ABINGDON*      CLOUDY    73  71  93 CALM      29.94F
$$

MDZ021>025-VAZ099-100-281500-
SOUTHERN MARYLAND AND THE DELMARVA PENINSULA

CITY           SKY/WX    TMP DP  RH WIND       PRES   REMARKS
PATUXENT RIVER CLOUDY    80  74  81 E5        29.82S
BAY BRIDGE APT MOSUNNY   81  73  78 NE7       29.82S
LEONARDTOWN    CLOUDY    79  72  78 CALM      29.85R
DOVER          CLOUDY    77  77 100 NE6       29.83R
GEORGETOWN     PTSUNNY   81  72  74 SE5       29.84S
EASTON         CLOUDY    81  75  83 NE3       29.86S
CAMBRIDGE      MOSUNNY   81  73  78 VRB5      29.82S
SALISBURY      CLOUDY    81  74  79 S7        29.83R
OCEAN CITY     SUNNY     79  74  84 S7        29.84R
WALLOPS ISLAND PTSUNNY   82  77  84 W3        29.84S
ACCOMACK*      CLOUDY    78  74  89 SW6       29.85R
$$

NCZ012>017-030>032-281500-
NORTH CENTRAL AND EASTERN NORTH CAROLINA

CITY           SKY/WX    TMP DP  RH WIND       PRES   REMARKS
ROANOKE RAPIDS PTSUNNY   79  75  89 CALM      29.86F
RALEIGH        PTSUNNY   84  76  76 SW6       29.87F
ELIZABETH CITY CLOUDY    77  76  96 E6        29.88F
AHOSKIE*         N/A     74  74  98 CALM      29.86F
EDENTON*       DRIZZLE   78  75  91 CALM      29.88S
CURRITUCK*     LGT RAIN N/A N/A N/A SE3       29.90R
KILL DEVIL HLS HVY RAIN  71  71 100 CALM      29.91R
MANTEO         CLOUDY    73  72  96 N8        29.92R
CAPE HATTERAS  CLOUDY    82  76  81 W9        29.90S
TARBORO*       NOT AVBL
GOLDSBORO      CLOUDY    81  78  89 SW7       29.87S
WASHINGTON     CLOUDY    80  74  81 SW9       29.88S
GREENVILLE     PTSUNNY   81  73  78 W9        29.89F
NEW BERN       CLOUDY    81  76  84 SW9       29.89F
WILMINGTON     CLOUDY    81  76  84 SW7       29.89F
$$

VAZ048-281500-
ELSEWHERE

CITY           SKY/WX    TMP DP  RH WIND       PRES   REMARKS
HARRISBURG PA  PTSUNNY   78  73  84 E9        29.84F HAZE
BALTIMORE      CLOUDY    78  74  87 E10       29.82F
ANNAPOLIS      CLOUDY    82  78  88 E8        29.82S
ANDREWS AFB    CLOUDY    78  74  87 CALM      29.82F
PHILADELPHIA   CLOUDY    77  70  79 NE10      29.85S HAZE
HENDERSON NC   MOSUNNY   77  72  83 SW8       29.87F
GREENSBORO     CLOUDY    79  75  87 W10       29.88S
ROCKY MOUNT    CLOUDY    80  76  87 SW7       29.86F
$$

VAZ100-281500-
MARINE

STATION/POSITION TIME  TEMP    WIND        PRES    WAVE   SWELL
                       AIR SEA DIR/SP/G            HT/PER HT/PER
                 (UTC) (F)     (DEG/KT/KT) (MB)    (FT/S) (FT/S)
BRANDYWINE LGT   1336   74      70/ 10/ 10 1010.5F
CAPE MAY NJ      1348   76 76   90/  8/ 11 1009.7F
LEWES DE         1348   77 75   70/  5/  7 1009.9S
15NM E FENWICK I 1350   75 76  210/  8/  8 1010.8R   3/ 6   3/ 6
OCEAN-CITY-INLET 1348   75 76  200/  7/  9 1010.9R
WACHAPREAGUE VA  1348   78 80  190/  6/  8 1010.6R
THOMAS POINT MD  1400   78 81   90/  6/  6   N/A
COVE POINT MD    1348   77     170/  2/  2 1010.5R
SOLOMONS ISLAND  1336   80 83   CALM  /  1   N/A
BISHOPS HEAD MD  1348   79 80   CALM  /  2 1010.1S
PINEY POINT MD   1342          260/  3/  5   N/A
CAMBRIDGE MD     1348   80 83              1010.6S
LEWISETTA VA     1348   77 82  220/  5/  6 1009.9F
RAPPAHANNOCK LGT 1342          220/ 11/ 14 1011.1R
YORK RVR RNG VA  1348   78     230/ 10/ 12 1010.7F
YORKTOWN VA      1348   79 82  220/ 10/ 12 1010.0F
DOMINION TERM VA 1348   77     190/  9/ 11 1010.8F
KIPTOPEKE VA     1342      77  210/ 12/ 16   N/A
CHES BAY BRIDGE  1348   76 78  190/ 11/ 12 1010.7F
CAPE HENRY VA    1348   76     190/  6/  9   N/A
WILLOUBY STN VA  1348   78     200/ 11/ 14 1010.7F
S CRANEY ISL VA  1348   77     200/  6/  8 1010.8F
CAPE HENRY BUOY  1400      72                N/A     3/ 4
64NM E OF VA BCH 1350   75 76  240/ 17/ 21 1011.7F   4/ 5   2/ 8
DUCK PIER NC     1348   72 62   70/  9/ 14 1012.4R
44100 DUCK FRF   1305      73                N/A     3/ 8
44056 DUCK FRF   1400      68                N/A     2/ 8
OREGON INLET NC  1336   79 79  270/  6/  9 1012.3R
HATTERAS NC      1336   80 80  240/  7/ 10 1012.2S
DIAMOND SHLS NC  1350   81 83  250/ 14/ 16 1012.2F   3/ 8   2/ 8
CAPE LOOKOUT NC  1400   82     250/  9/ 11 1012.1F
$$




USA.gov is the U.S. government's official web portal to all federal, state and local government web resources and services.